Total_Precipitation_Accumulation
1.65 1.95 2.81 3.55 3.69 3.05 2.49 2.04 1.74 1.76 1.56 1.16 0.85 0.87 1.21 1.59 1.95 2.46 2.57 2.22 1.65 1.48 1.67 2.20 2.57 2.36 2.00 1.89 1.99 2.06 1.97 1.94 1.93 1.87 1.90 1.59 1.45 1.38 1.23 1.11 1.05 0.98 0.90 0.92 1.06 1.07 0.97 0.83 0.82
1.42 2.38 3.41 4.00 3.43 2.51 2.26 1.97 1.92 1.71 1.27 0.91 0.69 0.74 0.96 0.93 0.79 1.51 2.63 2.54 1.68 1.47 1.51 1.79 2.38 2.23 2.00 1.94 2.04 2.05 1.97 1.95 1.97 1.88 1.69 1.42 1.39 1.34 1.29 1.26 1.21 1.09 0.95 0.90 0.96 0.99 1.00 0.99 0.93
1.58 2.82 3.55 3.65 2.52 2.17 2.25 2.10 1.93 1.41 0.98 0.84 0.74 0.65 0.85 1.11 1.13 1.58 2.41 1.98 1.44 1.40 1.50 1.94 2.28 2.13 1.95 1.79 1.84 1.93 1.87 1.86 1.94 1.85 1.57 1.34 1.24 1.23 1.26 1.32 1.27 1.18 1.11 1.00 0.96 0.92 0.91 0.98 0.94
1.95 2.98 3.15 2.72 2.18 1.85 1.85 1.97 1.67 1.33 1.00 0.70 0.67 0.70 0.74 1.22 1.41 1.45 1.55 1.44 1.27 1.30 1.40 1.73 2.05 2.03 1.89 1.71 1.71 1.57 1.49 1.52 1.66 1.64 1.47 1.29 1.28 1.24 1.24 1.24 1.19 1.19 1.15 1.08 1.00 0.92 0.87 0.86 0.81
2.56 3.15 2.95 2.39 2.01 1.84 1.67 1.57 1.43 1.42 1.27 0.87 0.72 0.85 1.07 1.53 1.63 1.56 1.42 1.34 1.24 1.24 1.20 1.42 1.72 1.77 1.75 1.71 1.62 1.55 1.41 1.46 1.48 1.43 1.37 1.28 1.26 1.24 1.20 1.09 0.99 1.01 1.05 1.04 0.98 0.91 0.85 0.78 0.76
2.94 3.00 2.96 2.55 2.06 1.91 1.79 1.49 1.29 1.31 1.20 0.93 0.82 1.03 1.49 2.02 2.03 2.03 1.60 1.51 1.48 1.23 1.13 1.21 1.43 1.47 1.39 1.41 1.60 1.63 1.37 1.42 1.39 1.27 1.23 1.24 1.15 1.13 1.08 0.94 0.93 0.96 1.03 1.05 0.97 0.90 0.82 0.77 0.76
3.01 2.93 2.75 2.26 2.08 2.13 1.89 1.37 1.24 1.23 1.17 0.90 0.79 1.04 1.59 2.30 2.21 1.97 1.61 1.40 1.47 1.34 1.20 1.12 1.07 1.12 1.23 1.40 1.36 1.28 1.31 1.44 1.40 1.21 1.14 1.17 1.02 0.91 0.87 0.88 0.94 0.95 1.04 1.08 1.00 0.90 0.81 0.79 0.81
2.29 2.57 2.62 2.47 2.29 2.41 1.73 1.22 1.06 1.02 1.01 0.65 0.67 1.03 1.46 1.97 1.85 1.73 1.49 1.34 1.34 1.22 1.09 0.96 0.88 0.93 1.02 1.15 1.23 1.21 1.19 1.27 1.27 1.19 1.17 1.16 0.95 0.82 0.84 0.87 1.01 1.07 1.08 1.15 1.09 0.91 0.84 0.81 0.85
2.03 2.52 2.87 2.80 2.24 2.13 1.48 1.35 1.04 0.85 0.76 0.65 0.67 0.79 1.02 1.14 1.21 1.33 1.28 1.17 1.18 1.04 0.96 0.88 0.79 0.83 0.90 0.96 0.99 1.11 1.14 1.16 1.08 0.99 1.03 0.95 0.75 0.73 0.78 0.83 1.13 1.25 1.32 1.31 1.23 1.11 0.98 0.89 0.83
2.18 2.57 2.61 2.08 1.58 1.52 1.45 1.34 1.01 1.05 1.04 0.86 0.78 0.78 1.03 1.11 1.10 1.23 1.19 1.10 1.05 1.02 0.92 0.83 0.83 0.81 0.79 0.79 1.04 1.19 1.04 0.96 0.86 0.89 0.85 0.84 0.84 0.88 0.74 0.81 1.03 1.05 1.12 1.17 1.17 1.16 1.01 0.81 0.66
1.61 1.95 1.85 1.54 1.14 1.08 1.18 1.03 0.82 1.12 1.29 0.99 0.90 0.92 1.06 1.17 1.15 1.15 1.18 1.10 0.98 0.97 0.88 0.78 0.80 0.73 0.67 0.78 0.94 1.12 1.15 1.12 1.09 0.94 0.94 0.90 0.82 0.76 0.64 0.65 0.74 0.79 0.87 0.87 0.96 0.99 0.82 0.67 0.63
1.36 1.31 1.34 1.33 0.97 1.05 1.12 0.91 0.94 1.07 1.13 0.84 0.75 0.80 0.96 1.06 1.07 1.07 1.07 1.02 0.87 0.86 0.89 0.77 0.74 0.65 0.58 0.55 0.65 0.80 0.85 0.86 0.87 0.89 0.82 0.84 0.88 0.86 0.74 0.73 0.79 0.82 0.81 0.90 0.95 0.98 0.87 0.71 0.59
1.43 1.34 1.19 1.15 1.00 1.02 1.06 0.94 0.96 1.10 0.91 0.76 0.79 0.83 1.01 1.07 1.03 0.94 0.87 0.83 0.81 0.81 0.80 0.77 0.74 0.69 0.71 0.66 0.61 0.59 0.63 0.69 0.75 0.82 0.74 0.69 0.75 0.84 0.83 0.79 0.86 0.84 0.86 0.94 0.91 0.79 0.80 0.75 0.63
1.24 1.24 1.27 1.24 1.13 0.99 1.08 0.97 0.97 1.21 0.96 0.84 0.83 0.87 0.95 1.02 0.97 0.84 0.81 0.73 0.66 0.76 0.82 0.80 0.72 0.73 0.70 0.64 0.65 0.66 0.65 0.67 0.70 0.75 0.68 0.62 0.64 0.68 0.80 0.81 0.90 0.85 0.91 0.99 0.88 0.80 0.83 0.83 0.71
1.02 1.31 1.43 1.26 1.16 1.10 1.13 1.29 1.19 1.18 1.01 0.94 0.88 0.88 0.95 1.01 0.98 0.89 0.82 0.75 0.63 0.63 0.74 0.82 0.77 0.78 0.74 0.69 0.70 0.72 0.71 0.66 0.67 0.71 0.64 0.59 0.64 0.66 0.79 0.87 0.91 0.90 0.93 0.94 0.95 0.95 0.90 0.83 0.75
1.22 1.51 1.77 1.34 1.17 1.08 1.27 1.59 1.32 1.23 1.15 1.01 0.83 0.82 0.84 0.86 0.90 0.96 0.87 0.74 0.66 0.61 0.65 0.74 0.73 0.78 0.80 0.79 0.79 0.78 0.73 0.72 0.75 0.77 0.72 0.67 0.67 0.70 0.91 0.98 0.90 0.95 1.05 1.11 1.15 1.11 1.03 0.94 0.91
1.60 1.65 1.57 1.34 1.10 1.00 1.17 1.34 1.25 1.22 1.22 1.07 0.80 0.68 0.71 0.72 0.75 0.83 0.81 0.75 0.66 0.61 0.60 0.63 0.67 0.86 0.87 0.84 0.89 0.90 0.88 0.94 0.95 0.95 0.91 0.85 0.82 0.90 1.07 1.15 1.07 1.06 1.23 1.22 1.12 1.17 1.22 1.14 1.15
1.34 1.16 1.09 1.17 0.99 0.96 1.08 1.05 1.12 1.12 1.08 0.96 0.81 0.66 0.65 0.65 0.65 0.62 0.58 0.65 0.62 0.59 0.55 0.57 0.64 0.78 0.87 1.00 1.08 1.16 1.16 1.17 1.29 1.35 1.31 1.14 1.08 1.13 1.29 1.39 1.35 1.32 1.46 1.48 1.37 1.50 1.52 1.44 1.48
0.86 0.86 0.93 0.91 0.77 0.87 0.96 0.94 1.02 0.99 0.95 0.81 0.70 0.61 0.58 0.56 0.58 0.52 0.45 0.50 0.52 0.48 0.48 0.52 0.66 0.82 0.96 1.07 1.19 1.44 1.59 1.69 1.69 1.69 1.74 1.65 1.45 1.53 1.65 1.62 1.85 1.92 1.92 1.93 1.89 2.04 2.09 1.83 1.66
0.79 0.83 0.86 0.81 0.67 0.77 0.85 0.88 0.92 0.87 0.80 0.65 0.59 0.54 0.48 0.48 0.50 0.46 0.37 0.37 0.39 0.39 0.42 0.48 0.60 0.83 1.05 1.25 1.42 1.60 1.91 2.06 2.06 2.13 2.06 1.99 1.87 1.89 1.80 1.88 2.12 2.18 2.30 2.41 2.26 2.41 2.52 2.19 1.90
0.72 0.72 0.74 0.74 0.76 0.77 0.78 0.93 0.96 0.92 0.77 0.59 0.50 0.45 0.41 0.36 0.39 0.40 0.36 0.31 0.28 0.31 0.36 0.42 0.51 0.72 1.01 1.31 1.55 1.74 1.96 2.22 2.31 2.21 2.17 2.19 2.26 2.29 2.17 2.12 2.26 2.29 2.38 2.61 2.65 2.59 2.73 2.68 2.33
0.81 0.51 0.48 0.54 0.70 0.91 0.76 1.08 0.97 0.88 0.78 0.63 0.54 0.47 0.42 0.39 0.38 0.36 0.34 0.34 0.30 0.31 0.36 0.44 0.53 0.65 0.85 1.11 1.42 1.67 1.92 2.24 2.31 2.28 2.26 2.30 2.38 2.45 2.39 2.34 2.41 2.44 2.41 2.55 2.62 2.59 2.85 3.09 2.83
0.62 0.39 0.42 0.53 0.58 0.66 0.60 0.85 0.90 0.72 0.78 0.69 0.61 0.54 0.46 0.42 0.41 0.36 0.34 0.34 0.36 0.37 0.41 0.52 0.62 0.72 0.88 1.10 1.41 1.73 1.92 2.08 2.27 2.28 2.18 2.12 2.19 2.19 2.15 2.26 2.42 2.44 2.43 2.45 2.62 2.74 2.95 2.99 2.94
0.44 0.45 0.48 0.52 0.60 0.73 0.48 0.64 0.82 0.71 0.66 0.64 0.60 0.57 0.48 0.39 0.40 0.42 0.45 0.45 0.44 0.49 0.56 0.68 0.77 0.92 1.04 1.10 1.21 1.38 1.60 1.88 2.00 2.10 2.13 2.15 2.16 2.02 1.92 2.02 2.12 2.21 2.27 2.27 2.33 2.49 2.65 2.85 3.00
0.42 0.64 0.87 0.88 0.87 0.75 0.36 0.52 0.67 0.52 0.47 0.53 0.53 0.53 0.50 0.47 0.50 0.57 0.65 0.60 0.58 0.62 0.74 0.83 0.91 0.96 1.00 0.95 0.97 1.08 1.26 1.50 1.63 1.71 1.90 1.98 2.02 1.98 1.90 1.86 1.91 1.98 2.03 2.13 2.31 2.31 2.36 2.55 2.74
0.44 0.55 0.88 0.97 0.84 0.66 0.50 0.65 0.65 0.50 0.43 0.46 0.48 0.47 0.47 0.53 0.61 0.75 0.85 0.85 0.80 0.82 0.85 0.85 0.90 0.85 0.82 0.84 0.87 0.91 0.97 1.13 1.25 1.33 1.49 1.62 1.62 1.60 1.57 1.61 1.69 1.82 1.91 2.00 2.16 2.22 2.18 2.26 2.33
0.39 0.35 0.36 0.54 0.54 0.62 0.61 0.71 0.67 0.48 0.41 0.44 0.48 0.49 0.50 0.61 0.75 0.93 1.08 1.12 1.02 0.96 0.91 0.91 0.94 0.88 0.79 0.81 0.87 0.89 0.92 0.94 0.96 1.01 1.02 1.10 1.19 1.21 1.23 1.29 1.42 1.61 1.74 1.79 1.89 2.05 2.04 2.10 2.10
0.27 0.30 0.37 0.63 0.84 0.88 0.73 0.75 0.82 0.64 0.50 0.51 0.59 0.67 0.76 0.89 0.97 1.10 1.21 1.20 1.15 1.18 1.14 0.98 0.93 0.95 0.86 0.93 0.95 0.87 0.84 0.80 0.80 0.84 0.89 0.91 0.98 1.07 1.16 1.18 1.25 1.38 1.47 1.56 1.72 1.87 1.95 1.99 1.96
0.24 0.30 0.45 0.68 0.76 1.02 1.14 1.11 0.82 0.65 0.64 0.65 0.72 0.93 0.99 1.08 1.16 1.18 1.26 1.24 1.12 1.11 1.08 1.05 0.99 0.97 0.97 0.98 0.99 0.87 0.83 0.83 0.80 0.79 0.83 0.91 0.98 1.07 1.14 1.18 1.21 1.23 1.32 1.38 1.49 1.63 1.78 1.81 1.82
0.35 0.47 0.64 1.01 0.99 0.90 1.22 1.32 0.88 0.72 0.74 0.76 0.77 0.78 0.79 0.99 1.12 1.14 1.22 1.17 1.03 1.00 0.88 0.91 0.99 0.99 1.06 1.06 0.97 0.88 0.90 0.91 0.93 0.90 0.85 0.89 0.94 0.94 1.03 1.15 1.13 1.12 1.17 1.26 1.36 1.46 1.52 1.63 1.60